Location: Ermatingen
(47.6706°N, 9.0857°E)
Time: 23:23:37
(UTC+00:00)

NOSS 2-2 (C) - Pass Details

Date: 18 September 2020
Orbit: 468 x 1740 km, 63.3° (Epoch: 19 October)

Event Time Altitude Azimuth Distance (km) Brightness Sun altitude
Rises 18:15:01 0° 193° (SSW) 2,514 6.7 -8.5°
Reaches altitude 10° 18:17:15 10° 182° (S) 1,622 5.6 -8.9°
Maximum altitude 18:20:20 29° 119° (ESE) 900 3.9 -9.4°
Drops below altitude 10° 18:23:38 10° 58° (ENE) 1,754 5.5 -9.9°
Sets 18:26:09 0° 47° (NE) 2,765 6.6 -10.3°
